• In Netherlands
  • List of Countries
  • For 7 days
  • Water Temperature
  • Satellite Maps
  • Weather Map
  • Weather Widgets
  • user-avatar
    Login

    Hourly Weather Kipungo

    Today, 25 May, Thursday

    Time Temperature Precipitation Wind Pressure Humidity
    00:00 +14°C° 0 mm 1 mps 653 mmHg 66%
    01:00 +13°C° 0 mm 1 mps 653 mmHg 70%
    02:00 +13°C° 0 mm 1 mps 652 mmHg 73%
    03:00 +11°C° 0 mm 0 mps 652 mmHg 75%
    04:00 +11°C° 0 mm 0 mps 652 mmHg 78%
    05:00 +12°C° 0 mm 0 mps 652 mmHg 74%
    06:00 +12°C° 0 mm 0 mps 653 mmHg 71%
    07:00 +14°C° 0 mm 1 mps 653 mmHg 67%
    08:00 +19°C° 0 mm 1 mps 654 mmHg 55%
    09:00 +23°C° 0 mm 2 mps 655 mmHg 44%
    10:00 +27°C° 0 mm 2 mps 657 mmHg 32%
    11:00 +28°C° 0 mm 2 mps 656 mmHg 27%
    12:00 +30°C° 0 mm 2 mps 656 mmHg 23%
    13:00 +32°C° 0 mm 2 mps 656 mmHg 19%
    14:00 +31°C° 0 mm 2 mps 655 mmHg 19%
    15:00 +31°C° 0 mm 1 mps 655 mmHg 19%
    16:00 +31°C° 0 mm 1 mps 654 mmHg 19%
    17:00 +27°C° 0 mm 1 mps 653 mmHg 28%
    18:00 +23°C° 0 mm 1 mps 653 mmHg 38%
    19:00 +19°C° 0 mm 1 mps 652 mmHg 47%
    20:00 +18°C° 0 mm 1 mps 652 mmHg 49%
    21:00 +18°C° 0 mm 1 mps 652 mmHg 50%
    22:00 +16°C° 0 mm 1 mps 653 mmHg 51%
    23:00 +16°C° 0 mm 1 mps 653 mmHg 53%

    Tomorrow, 26 May, Friday

    Time Temperature Precipitation Wind Pressure Humidity
    00:00 +15°C° 0 mm 1 mps 652 mmHg 56%
    01:00 +15°C° 0 mm 1 mps 652 mmHg 58%
    02:00 +14°C° 0 mm 1 mps 652 mmHg 64%
    03:00 +14°C° 0 mm 1 mps 652 mmHg 69%
    04:00 +13°C° 0 mm 1 mps 651 mmHg 75%
    05:00 +14°C° 0 mm 1 mps 652 mmHg 72%
    06:00 +14°C° 0 mm 1 mps 652 mmHg 69%
    07:00 +15°C° 0 mm 1 mps 653 mmHg 67%
    08:00 +20°C° 0 mm 1 mps 654 mmHg 54%
    09:00 +24°C° 0 mm 1 mps 655 mmHg 42%
    10:00 +28°C° 0 mm 1 mps 657 mmHg 30%
    11:00 +30°C° 0 mm 2 mps 656 mmHg 27%
    12:00 +31°C° 0 mm 2 mps 656 mmHg 24%
    13:00 +32°C° 0 mm 2 mps 655 mmHg 21%
    14:00 +32°C° 0 mm 2 mps 655 mmHg 22%
    15:00 +31°C° 0 mm 2 mps 654 mmHg 23%
    16:00 +31°C° 0 mm 2 mps 654 mmHg 24%
    17:00 +28°C° 0 mm 2 mps 654 mmHg 33%
    18:00 +25°C° 0 mm 1 mps 653 mmHg 42%
    19:00 +21°C° 0 mm 1 mps 653 mmHg 50%
    20:00 +21°C° 0 mm 1 mps 653 mmHg 50%
    21:00 +21°C° 0 mm 1 mps 654 mmHg 49%
    22:00 +20°C° 0 mm 1 mps 654 mmHg 48%
    23:00 +19°C° 0 mm 1 mps 654 mmHg 49%

    Day after tomorrow, 27 May, Saturday

    Time Temperature Precipitation Wind Pressure Humidity
    00:00 +19°C° 0 mm 1 mps 654 mmHg 51%
    01:00 +18°C° 0 mm 1 mps 653 mmHg 53%
    02:00 +16°C° 0 mm 1 mps 653 mmHg 57%
    03:00 +15°C° 0 mm 1 mps 653 mmHg 61%
    04:00 +14°C° 0 mm 0 mps 652 mmHg 65%
    05:00 +14°C° 0 mm 0 mps 653 mmHg 64%
    06:00 +15°C° 0 mm 1 mps 653 mmHg 63%
    07:00 +16°C° 0 mm 1 mps 654 mmHg 61%
    08:00 +21°C° 0 mm 1 mps 655 mmHg 50%
    09:00 +25°C° 0 mm 1 mps 657 mmHg 38%
    10:00 +30°C° 0 mm 1 mps 658 mmHg 26%
    11:00 +31°C° 0 mm 1 mps 658 mmHg 24%
    12:00 +33°C° 0 mm 1 mps 658 mmHg 21%
    13:00 +35°C° 0 mm 1 mps 658 mmHg 18%
    14:00 +33°C° 0 mm 1 mps 657 mmHg 21%
    15:00 +31°C° 0 mm 1 mps 656 mmHg 24%
    16:00 +30°C° 0 mm 1 mps 655 mmHg 26%
    17:00 +27°C° 0 mm 2 mps 655 mmHg 34%
    18:00 +25°C° 0 mm 2 mps 655 mmHg 41%
    19:00 +23°C° 0 mm 2 mps 655 mmHg 48%
    20:00 +21°C° 0 mm 2 mps 655 mmHg 55%
    21:00 +20°C° 0 mm 1 mps 655 mmHg 63%
    22:00 +19°C° 0 mm 1 mps 655 mmHg 70%
    23:00 +18°C° 0 mm 1 mps 654 mmHg 73%

    28 May, Sunday

    Time Temperature Precipitation Wind Pressure Humidity
    00:00 +16°C° 0 mm 1 mps 654 mmHg 76%
    01:00 +16°C° 0 mm 1 mps 654 mmHg 80%
    02:00 +15°C° 0 mm 1 mps 653 mmHg 82%
    03:00 +15°C° 0 mm 1 mps 653 mmHg 84%
    04:00 +14°C° 0 mm 1 mps 653 mmHg 85%
    05:00 +15°C° 0 mm 1 mps 654 mmHg 82%
    06:00 +16°C° 0 mm 1 mps 654 mmHg 79%
    07:00 +16°C° 0 mm 1 mps 655 mmHg 75%
    08:00 +21°C° 0 mm 1 mps 656 mmHg 61%
    09:00 +25°C° 0 mm 1 mps 657 mmHg 47%
    10:00 +29°C° 0 mm 2 mps 658 mmHg 33%
    11:00 +30°C° 0 mm 2 mps 658 mmHg 30%
    12:00 +30°C° 0 mm 2 mps 657 mmHg 28%
    13:00 +31°C° 0 mm 2 mps 656 mmHg 26%
    14:00 +30°C° 0 mm 2 mps 656 mmHg 28%
    15:00 +29°C° 0 mm 1 mps 656 mmHg 30%
    16:00 +29°C° 0 mm 1 mps 655 mmHg 32%
    17:00 +26°C° 0 mm 1 mps 655 mmHg 37%
    18:00 +24°C° 0 mm 1 mps 655 mmHg 41%
    19:00 +22°C° 0 mm 1 mps 655 mmHg 46%
    20:00 +21°C° 0 mm 1 mps 655 mmHg 49%
    21:00 +20°C° 0 mm 1 mps 655 mmHg 52%
    22:00 +19°C° 0 mm 1 mps 655 mmHg 55%
    23:00 +19°C° 0 mm 1 mps 655 mmHg 58%

    29 May, Monday

    Time Temperature Precipitation Wind Pressure Humidity
    00:00 +18°C° 0 mm 1 mps 654 mmHg 61%
    01:00 +18°C° 0 mm 1 mps 654 mmHg 64%
    02:00 +16°C° 0 mm 1 mps 654 mmHg 63%
    03:00 +16°C° 0 mm 1 mps 654 mmHg 62%
    04:00 +16°C° 0 mm 1 mps 654 mmHg 61%
    05:00 +16°C° 0 mm 1 mps 654 mmHg 59%
    06:00 +18°C° 0 mm 1 mps 655 mmHg 57%
    07:00 +18°C° 0 mm 1 mps 655 mmHg 55%
    08:00 +21°C° 0 mm 2 mps 656 mmHg 46%
    09:00 +25°C° 0 mm 2 mps 657 mmHg 38%
    10:00 +28°C° 0 mm 2 mps 658 mmHg 30%
    11:00 +30°C° 0 mm 2 mps 657 mmHg 27%
    12:00 +31°C° 0 mm 2 mps 657 mmHg 25%
    13:00 +33°C° 0 mm 1 mps 657 mmHg 22%
    14:00 +32°C° 0 mm 1 mps 656 mmHg 25%
    15:00 +30°C° 0 mm 1 mps 655 mmHg 29%
    16:00 +29°C° 0 mm 1 mps 655 mmHg 32%
    17:00 +27°C° 0 mm 1 mps 655 mmHg 36%
    18:00 +25°C° 0 mm 1 mps 655 mmHg 39%
    19:00 +23°C° 0 mm 1 mps 655 mmHg 43%
    20:00 +22°C° 0 mm 1 mps 655 mmHg 44%
    21:00 +21°C° 0 mm 1 mps 655 mmHg 45%
    22:00 +21°C° 0 mm 1 mps 655 mmHg 46%
    23:00 +20°C° 0 mm 1 mps 655 mmHg 47%

    30 May, Tuesday

    Time Temperature Precipitation Wind Pressure Humidity
    00:00 +20°C° 0 mm 1 mps 654 mmHg 47%
    01:00 +19°C° 0 mm 1 mps 654 mmHg 48%
    02:00 +18°C° 0 mm 1 mps 654 mmHg 51%
    03:00 +16°C° 0 mm 1 mps 654 mmHg 54%
    04:00 +16°C° 0 mm 1 mps 653 mmHg 56%
    05:00 +16°C° 0 mm 1 mps 654 mmHg 56%
    06:00 +16°C° 0 mm 1 mps 654 mmHg 55%
    07:00 +16°C° 0 mm 1 mps 655 mmHg 54%
    08:00 +20°C° 0 mm 2 mps 656 mmHg 44%
    09:00 +24°C° 0 mm 2 mps 657 mmHg 34%
    10:00 +28°C° 0 mm 3 mps 658 mmHg 24%
    11:00 +30°C° 0 mm 2 mps 657 mmHg 22%
    12:00 +31°C° 0 mm 2 mps 657 mmHg 20%
    13:00 +32°C° 0 mm 2 mps 656 mmHg 18%
    14:00 +32°C° 0 mm 2 mps 656 mmHg 18%
    15:00 +32°C° 0 mm 1 mps 656 mmHg 18%
    16:00 +32°C° 0 mm 1 mps 655 mmHg 18%
    17:00 +28°C° 0 mm 1 mps 655 mmHg 26%
    18:00 +24°C° 0 mm 1 mps 654 mmHg 33%
    19:00 +20°C° 0 mm 1 mps 653 mmHg 40%
    20:00 +19°C° 0 mm 1 mps 654 mmHg 41%
    21:00 +18°C° 0 mm 1 mps 654 mmHg 41%
    22:00 +17°C° 0 mm 2 mps 654 mmHg 42%
    23:00 +16°C° 0 mm 1 mps 654 mmHg 46%
    Show more